PST,Max TemperatureF,Mean TemperatureF,Min TemperatureF,Max Dew PointF,MeanDew PointF,Min DewpointF,Max Humidity, Mean Humidity, Min Humidity, Max Sea Level PressureIn, Mean Sea Level PressureIn, Min Sea Level PressureIn, Max VisibilityMiles, Mean VisibilityMiles, Min VisibilityMiles, Max Wind SpeedMPH, Mean Wind SpeedMPH, Max Gust SpeedMPH,PrecipitationIn, CloudCover, Events, WindDirDegrees
2013-1-1,57,47,36,42,38,34,92,72,51,30.26,30.20,30.14,10,9,6,13,3,14,0.00,4,,143
2013-1-2,60,46,32,38,33,29,96,67,38,30.18,30.13,30.09,10,10,9,10,3,17,0.00,0,,142
2013-1-3,64,47,30,44,33,23,92,58,23,30.23,30.17,30.09,10,10,9,8,3,10,0.00,0,,130
2013-1-4,66,50,33,44,36,30,92,61,29,30.29,30.24,30.19,10,10,7,12,3,,0.00,0,,122
2013-1-5,60,47,33,49,43,32,96,77,57,30.33,30.24,30.18,10,8,2,14,4,17,0.13,5,Rain,158
2013-1-6,55,48,41,48,45,39,93,82,71,30.19,30.15,30.10,10,9,2,25,8,31,0.28,5,Rain,287
2013-1-7,59,48,37,47,41,36,92,75,57,30.22,30.16,30.12,10,10,10,20,10,24,0.00,1,,317
2013-1-8,67,52,36,45,40,34,89,66,43,30.15,30.11,30.08,10,10,10,13,3,15,0.00,0,,238
2013-1-9,59,51,43,52,46,40,100,81,62,30.12,30.08,30.05,10,8,2,21,4,25,0.03,6,Rain,268
2013-1-10,53,43,33,43,36,32,92,74,56,30.21,30.12,30.06,10,10,8,29,8,37,T,2,Rain,311
2013-1-11,53,42,30,38,33,29,92,67,41,30.27,30.20,30.12,10,9,6,17,6,21,0.01,2,,143
2013-1-12,54,42,30,35,31,26,96,67,38,30.25,30.17,30.14,10,9,5,18,4,22,0.00,1,,338
2013-1-13,53,40,26,33,27,22,92,61,30,30.24,30.17,30.11,10,10,10,17,5,,0.00,0,,330
2013-1-14,55,41,26,32,28,24,85,60,35,30.39,30.31,30.21,10,10,7,14,4,15,0.00,0,,127
2013-1-15,57,43,29,35,30,26,92,62,32,30.48,30.43,30.39,10,10,7,12,3,14,0.00,0,,231
2013-1-16,65,48,30,44,34,28,92,60,27,30.41,30.31,30.20,10,10,8,9,3,12,0.00,0,,130
2013-1-17,72,54,35,43,36,31,89,60,31,30.22,30.16,30.10,10,10,10,12,3,13,0.00,0,,140
2013-1-18,73,55,36,39,33,29,85,53,20,30.18,30.14,30.09,10,10,10,12,2,14,0.00,0,,99
2013-1-19,74,55,35,37,32,29,76,49,22,30.21,30.15,30.12,10,10,10,8,3,10,0.00,0,,147
2013-1-20,77,56,35,40,30,19,70,41,12,30.17,30.13,30.05,10,10,10,12,2,14,0.00,0,,147
2013-1-21,74,54,34,35,29,24,75,46,16,30.14,30.09,30.03,10,10,10,9,4,,0.00,0,,148
2013-1-22,77,57,36,43,34,24,70,43,15,30.10,30.07,30.04,10,10,10,14,2,17,0.00,2,,82
2013-1-23,66,57,47,50,41,33,89,60,31,30.11,30.05,30.01,10,10,7,15,3,29,T,5,,160
2013-1-24,65,59,52,58,54,47,100,81,62,30.16,30.09,30.04,10,9,5,18,6,23,0.19,8,Rain,138
2013-1-25,65,59,52,57,55,52,100,87,73,30.15,30.06,30.00,10,7,1,8,1,,0.01,7,Rain,285
2013-1-26,68,58,47,56,51,44,100,82,63,30.05,29.99,29.95,10,6,0,25,9,30,0.00,6,Fog,301
2013-1-27,57,49,40,46,41,37,96,74,51,30.16,30.10,30.05,10,10,8,20,8,33,T,4,,312
2013-1-28,57,45,33,44,38,32,96,72,47,30.29,30.21,30.16,10,10,10,22,7,30,0.00,1,,277
2013-1-29,60,48,35,46,38,33,92,69,46,30.32,30.26,30.21,10,10,9,23,8,45,0.01,2,,325
2013-1-30,69,53,37,42,37,34,85,59,32,30.35,30.28,30.23,10,10,10,20,4,24,0.00,0,,102
2013-1-31,71,54,36,50,41,36,93,64,35,30.27,30.21,30.16,10,10,10,10,3,,0.00,0,,228